Regional Weather Roundup
Issued by NWS

Home | Current Version | Previous Version | Text Only | Print | Product List | Glossary Off
Versions: 1 2 3 4 5 6 7 8 9 10 11 12 13 14 15 16 17 18 19 20 21 22 23 24 25 26 27 28 29 30 31 32 33 34 35 36 37 38 39 40 41 42 43 44 45 46 47 48 49 50

000
ASUS43 KDMX 040707
RWRIA

WEATHER ROUNDUP FOR IOWA
NATIONAL WEATHER SERVICE DES MOINES IA
200 AM CDT FRI SEP 04 2015

NOTE: "FAIR" INDICATES FEW OR NO CLOUDS BELOW 12,000 FEET WITH NO
SIGNIFICANT WEATHER AND/OR OBSTRUCTIONS TO VISIBILITY.

* - THESE STATIONS ARE NOT NWS STATIONS...THUS NOT UNDER NWS
QUALITY CONTROL.  THEY ALSO DO NOT REPORT WEATHER SUCH
AS PRECIPITATION OR FOG.

IAZ001>003-012>014-020>022-031>034-043>046-040800-
   NORTHWEST IOWA

CITY           SKY/WX    TMP DP  RH WIND       PRES   REMARKS
CARROLL *      CLEAR     72  70  94 S6        29.89S
CHEROKEE *     PTCLDY    73  72  94 S5        29.86R
DENISON *      CLEAR     75  68  78 S8G16     29.86S
LE MARS *      CLEAR     75  70  83 S7        29.84R
ORANGE CITY *  CLEAR     75  70  83 S8        29.84S
SHELDON *      CLEAR     73  72  94 S9        29.84S
SIOUX CITY     PTCLDY    76  69  79 SE12      29.82S
SPENCER        FOG       73  69  87 SE8       29.87S VSB 3/4
STORM LAKE *   CLEAR     72  70  94 S9        29.89R
$$

IAZ055>058-069>071-079>083-090>094-040800-
   SOUTHWEST IOWA

CITY           SKY/WX    TMP DP  RH WIND       PRES   REMARKS
ATLANTIC *     CLEAR     73  70  88 S6        29.90R
AUDUBON *      CLEAR     73  68  83 S6        29.91S
CLARINDA *     CLEAR     72  68  88 S5        29.92S
COUNCIL BLFS * CLEAR     72  68  88 SE8       29.88S
CRESTON *      CLEAR     72  68  88 S7        29.95R
LAMONI         PTCLDY    73  68  84 S6        29.94R
RED OAK *      CLEAR     72  70  94 S5        29.90R
SHENANDOAH *   CLEAR     73  70  88 S8        29.90R
$$

IAZ047>049-059>061-072>074-084-040800-
   CENTRAL IOWA

CITY           SKY/WX    TMP DP  RH WIND       PRES   REMARKS
AMES           PTCLDY    71  69  93 S5        29.92S
ANKENY *       PTCLDY    73  70  88 S7        29.92S
CHARITON *     PTCLDY    72  68  88 S6        29.95R
DES MOINES     PTCLDY    76  68  76 S8        29.93R
GRINNELL*      MOCLDY    73  68  83 S7        29.94S
KNOXVILLE *    PTCLDY    73  68  83 S7        29.93F
MARSHALLTOWN   MOCLDY    73  70  90 CALM      29.93R
PELLA *        PTCLDY    73  72  94 S3        29.94F
PERRY *          N/A     72  70  94 SE6       29.92R
$$

IAZ004>006-015-016-023>025-035-036-040800-
   NORTH CENTRAL IOWA

CITY           SKY/WX    TMP DP  RH WIND       PRES   REMARKS
ALGONA *       CLEAR     75  72  88 SE12      29.90S
CLARION *      CLEAR     73  70  88 S9        29.91S
ESTHERVILLE    CLEAR     71  70  96 SE6       29.88S
FORT DODGE *   PTCLDY    73  68  83 SE7       29.91S
MASON CITY     PTCLDY    70  70 100 SE3       29.94R
FOREST CITY *  MOCLDY    72  72 100 SE3       29.92S
IOWA FALLS *     N/A     75  70  83 S8        29.93S
$$

IAZ007>011-017>019-026>030-037>042-050>054-066-040800-
   NORTHEAST IOWA

CITY           SKY/WX    TMP DP  RH WIND       PRES   REMARKS
CEDAR RAPIDS   PTCLDY    70  70 100 S5        29.93F
CHARLES CITY * PTCLDY    73  73 100 SE5       29.94S
CLINTON *      CLEAR     72  68  88 CALM      29.96S
DECORAH *      PTCLDY    73  73 100 SE3       29.95R FOG
DUBUQUE        CLEAR     73  71  93 CALM      29.96S
MONTICELLO *   CLEAR     70  70 100 CALM      29.94S
OELWEIN *        N/A     72  70  94 CALM      29.95R
WATERLOO       MOCLDY    74  70  87 S5        29.92S
$$

IAZ064-065-067-068-078-040800-
   EAST CENTRAL IOWA

CITY           SKY/WX    TMP DP  RH WIND       PRES   REMARKS
DAVENPORT      PTCLDY    73  70  90 S5        29.95R
IOWA CITY      PTCLDY    71  70  96 CALM      29.94S
MT. PLEASANT * PTCLDY    72  68  88 CALM      29.95S
MUSCATINE *    CLEAR     72  68  88 CALM      29.94R
QUAD CITIES    CLEAR     72  68  87 CALM      29.94R
$$

IAZ062-063-075>077-085>089-095>099-040800-
   SOUTHEAST IOWA

CITY           SKY/WX    TMP DP  RH WIND       PRES   REMARKS
BURLINGTON     CLEAR     73  71  93 SW3       29.95R
FAIRFIELD *    CLEAR     72  66  83 CALM      29.95S
FORT MADISON * CLEAR     72  68  88 S3        29.96S
KEOKUK *       MOCLDY    75  68  78 CALM      29.94S
OSKALOOSA *      N/A     72  68  88 S6        29.96S
CENTERVILLE *  CLEAR     68  66  94 CALM      29.97S
OTTUMWA        PTCLDY    71  69  93 S7        29.94R
WASHINGTON *     N/A    N/A N/A N/A MISG        N/A
$$

ABBREVIATIONS USED IN REMARKS
   TC - TEMPERATURES IN CELSIUS
  WCI - WIND CHILL INDEX
   HX - HEAT INDEX
  VSB - VISIBILITY
$$



USA.gov is the U.S. government's official web portal to all federal, state and local government web resources and services.